User: anonymous
Location: Valley View Observatory
(41.0081°N, 76.5874°W)
Time: 23:04:39
(UTC-04:00)
Language:

Cosmos 2237 Rocket - Orbit

View from above orbital plane
View from above orbital plane
View from above satellite
View from above satellite

Ground track
Ground track

The orbit data is extracted from the following two-line orbital elements,

1 22566U 93016B   14237.76020141  .00000113  00000-0  82970-4 0  1311
2 22566 071.0089 061.3063 0012386 259.3237 100.6491 14.14850566106084
Epoch (UTC): 25 August 2014 18:14:41
Eccentricity: 0.0012386
inclination: 71.0089°
perigee height: 834 km
apogee height: 852 km
right ascension of ascending node: 61.3063°
argument of perigee: 259.3237°
revolutions per day: 14.14850566
mean anomaly at epoch: 100.6491°
orbit number at epoch: 10608

The dashed part of the orbit path shows where the satellite is in the earth's shadow,  

DLR